Home > Weather > Myrtle Beach > Past weeks

Flag for USA Weather for the Past 2 Weeks in Myrtle Beach, South Carolina, USA

Now
70 °F

Rain. Mostly cloudy.


Feels Like: 70 °F
Forecast: 70 / 77 °F
Wind: 7 mph from West

Location: Myrtle Beach Air Force Base

Current Time: May 1, 2016 at 7:40:17 PM

Latest Report: May 1, 2016 at 5:45 PM


Visibility: 3 mi

Pressure: 30.09 "Hg

Humidity: 78%

Dew Point: 63 °F

Location of Myrtle BeachLocation

Historic Weather in Myrtle Beach — Graph

°F

Myrtle Beach Temperature Yesterday

Maximum temperature yesterday: 75 °F (at 1:45 PM)
Minimum temperature yesterday: 64 °F (at 5:55 AM)
Average temperature yesterday: 70 °F

High & Low Weather Summary for the Past Weeks

 TemperatureHumidityPressure
High88 °F (Apr 19, 2:45 PM)83% (Apr 30, 4:35 AM)30.40 "Hg (Apr 30, 4:35 AM)
Low45 °F (Apr 17, 6:45 AM)16% (Apr 17, 4:45 PM)29.83 "Hg (Apr 23, 4:45 PM)
Average68 °F61%30.08 "Hg
* Reported Apr 16 5:45 PM — May 1 5:45 PM, Myrtle Beach, Weather by CustomWeather, © 2016

Note: Actual official high and low records may vary slightly from our data, if they occured in-between our weather recording intervals... More about our weather records

Advertising

Myrtle Beach Weather History for the Previous 24 Hours

Scroll right to see more
 ConditionsComfort  
Time TempWeatherWind HumidityBarometerVisibility
5:45 PM
Sun, May 1
70 °FRain. Mostly cloudy.7 mph78%30.09 "Hg3 mi
4:50 PM73 °FOvercast.8 mph74%30.08 "Hg10 mi
3:45 PM75 °FPartly sunny.12 mph69%30.07 "Hg10 mi
2:45 PM75 °FBroken clouds.12 mph69%30.08 "Hg7 mi
1:45 PM75 °FMore clouds than sun.14 mph69%30.10 "Hg10 mi
12:45 PM77 °FBroken clouds.12 mph61%30.12 "Hg10 mi
11:45 AM77 °FMore clouds than sun.13 mph61%30.12 "Hg10 mi
10:45 AM79 °FBroken clouds.12 mph58%30.13 "Hg10 mi
9:45 AM77 °FScattered clouds.14 mph61%30.11 "Hg10 mi
8:45 AM73 °FPartly sunny.12 mph69%30.12 "Hg10 mi
7:47 AM72 °FPartly sunny.12 mph73%30.09 "Hg10 mi
6:47 AM72 °FPartly cloudy.12 mph73%30.08 "Hg10 mi
5:55 AM72 °FClear.9 mph73%30.09 "Hg10 mi
5:35 AM72 °FClear.10 mph73%30.10 "Hg10 mi
5:15 AM72 °FPassing clouds.10 mph73%30.10 "Hg10 mi
4:55 AM72 °FPartly cloudy.10 mph73%30.10 "Hg10 mi
4:35 AM72 °FPartly cloudy.8 mph73%30.11 "Hg10 mi
4:15 AM72 °FPartly cloudy.7 mph73%30.11 "Hg10 mi
3:55 AM70 °FPartly cloudy.6 mph78%30.10 "Hg10 mi
2:55 AM70 °FPassing clouds.9 mph78%30.09 "Hg10 mi
2:35 AM70 °FMostly cloudy.8 mph78%30.10 "Hg10 mi
2:15 AM70 °FLow clouds.9 mph73%30.10 "Hg10 mi
1:55 AM70 °FMostly cloudy.10 mph73%30.10 "Hg10 mi
1:35 AM70 °FMostly cloudy.10 mph73%30.12 "Hg10 mi
12:35 AM70 °FMostly cloudy.13 mph73%30.12 "Hg10 mi
11:55 PM
Sat, Apr 30
68 °FOvercast.14 mph73%30.11 "Hg10 mi
11:35 PM68 °FMostly cloudy.12 mph73%30.13 "Hg10 mi
9:45 PM68 °FPartly cloudy.17 mph69%30.14 "Hg10 mi
8:45 PM66 °FPartly sunny.17 mph73%30.12 "Hg10 mi
7:49 PM68 °FBroken clouds.17 mph69%30.10 "Hg10 mi
Weather by CustomWeather, © 2016

See weather overviewHow to use our weather pages